Weather in Klimkovka

Russia / Kirov Oblast     58°53′37″N   51°13′47″E
temp.,
°C
wind,
m/s
gust,
m/s
humid.,
%
clouds,
%
prec.,
mm/h
press.,
hPa
HPBL,
m
26 july, mon
mon2600:00+8wsw238569 0.0 101953
03:00+11sw2775100 0.0 1019192
06:00+13wsw266982 0.0 1019237
09:00+18wsw36508 0.0 1018767
12:00+21w463845 0.0 10172290
15:00+18wsw385413 0.0 1016776
18:00+18wsw4959100 0.0 1014940
21:00+14wnw41185100 0.3 1014525
27 july, tue
tue2700:00+13w389990 1.3 1014394
03:00+12nw369799 1.3 1015419
06:00+12nnw36955 0.2 1016522
09:00+15nw465776 0.2 10151529
12:00+16nw4749100 0.2 10151890
15:00+15nnw465227 0.2 10161272
18:00+15wnw3753100 0.0 1016844
21:00+10wsw3871100 0.0 1015177
28 july, wed
wed2800:00+12w3106438 0.0 1015354
03:00+11wnw39705 0.0 1015354
06:00+11nw36690 0.0 1015305
09:00+16nw48440 0.0 10141438
12:00+20wnw46375 0.0 10132072
15:00+21wnw483461 0.0 10112586
18:00+18w25555 0.0 1010167
21:00+15wsw226394 0.0 100930
29 july, thu
thu2900:00+12wsw23715 0.0 100844
03:00+11wsw24786 0.0 100868
06:00+15wsw36665 0.0 1006201
09:00+22wsw35520 0.0 1005903
12:00+25wsw46423 0.0 10032242
15:00+22sw365870 0.0 1003465
18:00+19wsw35835 1.0 100289
21:00+15wsw229696 3.3 100236
30 july, fri
fri3000:00+13w129799 0.0 100320
03:00+13sw2398100 0.0 100261
06:00+15sw279795 0.0 1002228
09:00+21sw4767100 0.1 1002921
12:00+21sw597873 1.1 10011080
15:00+22w378333 3.5 10011181
18:00+19w3109011 2.5 1001410
21:00+14w27965 3.8 1002149